AB1IG Weather Reports


Display with metric or nautical units.
time (UTC)temp
F
wind
direction
speed
MPH
gust
MPH
rain 1hr
in
rain 24hr
in
rain mn
in
humidity
%
barometer
mb
20260506140011 48 39 4.0 14.0 0.00 0.00 0.00 78 1014.8
20260506134520 48 29 5.0 12.0 0.00 0.00 0.00 79 1015.0
20260506133011 48 31 4.0 13.0 0.00 0.00 0.00 80 1014.8
20260506131507 48 75 4.0 9.0 0.00 0.00 0.00 81 1015.0
20260506130007 48 330 4.0 11.0 0.00 0.00 0.00 81 1014.8
20260506124508 47 65 3.0 8.0 0.00 0.00 0.00 82 1014.6
20260506123002 47 53 5.0 13.0 0.00 0.00 0.00 82 1014.3
20260506121608 47 39 4.0 12.0 0.00 0.00 0.00 83 1014.0
20260506114557 47 31 3.0 8.0 0.00 0.00 0.00 83 1013.5
20260506113055 47 100 3.0 10.0 0.00 0.00 0.00 82 1013.3
20260506111610 47 51 3.0 12.0 0.00 0.00 0.00 81 1013.1
20260506110052 47 32 3.0 8.0 0.00 0.00 0.00 81 1013.0
20260506104549 47 39 3.0 8.0 0.00 0.00 0.00 80 1013.2
20260506103047 47 39 2.0 7.0 0.00 0.00 0.00 79 1013.8
20260506101546 47 63 2.0 6.0 0.00 0.00 0.00 79 1013.2
20260506100044 47 46 1.0 5.0 0.00 0.00 0.00 79 1013.4
20260506094542 47 23 1.0 7.0 0.00 0.00 0.00 78 1013.1
20260506093038 47 50 4.0 7.0 0.00 0.00 0.00 78 1012.4
20260506091540 47 44 2.0 7.0 0.00 0.00 0.00 76 1012.2
20260506090034 47 70 2.0 9.0 0.00 0.00 0.00 76 1012.1
20260506084532 47 34 2.0 6.0 0.00 0.00 0.00 75 1012.0
20260506083032 48 24 3.0 9.0 0.00 0.00 0.00 75 1011.7
20260506081531 48 44 2.0 9.0 0.00 0.00 0.00 74 1011.2
20260506073120 48 47 3.0 11.0 0.00 0.00 0.00 73 1010.5
20260506071518 48 36 3.0 9.0 0.00 0.00 0.00 73 1010.4
20260506061513 48 56 3.0 8.0 0.00 0.00 0.00 72 1010.6
20260506050109 48 46 4.0 9.0 0.00 0.00 0.00 71 1010.1
20260506044601 48 57 5.0 10.0 0.00 0.00 0.00 72 1010.0
20260506043058 48 38 3.0 12.0 0.00 0.00 0.00 74 1010.3
20260506041602 48 95 5.0 9.0 0.00 0.00 0.00 76 1010.2
20260506040052 48 41 6.0 12.0 0.00 0.00 0.00 77 1010.1
20260506034557 48 45 4.0 11.0 0.00 0.00 0.00 79 1010.0
20260506033049 48 22 5.0 10.0 0.00 0.00 0.00 80 1010.0
20260506031546 48 24 6.0 13.0 0.00 0.00 0.00 81 1009.3
20260506030044 48 246 7.0 11.0 0.00 0.00 0.00 82 1008.7
20260506024550 48 41 7.0 12.0 0.00 0.00 0.00 82 1009.0
20260506023041 48 46 6.0 13.0 0.00 0.00 0.00 83 1008.9
20260506021540 48 47 3.0 12.0 0.00 0.00 0.00 83 1008.9
20260506020040 48 19 4.0 12.0 0.00 0.00 0.00 83 1008.7
20260506014535 48 37 6.0 12.0 0.00 0.00 0.00 82 1008.3
20260506013033 49 38 6.0 11.0 0.00 0.00 0.00 81 1008.2
20260506011557 49 47 5.0 12.0 0.00 0.00 0.00 81 1008.3
20260506010025 49 41 4.0 9.0 0.00 0.00 0.00 81 1007.9
20260506004523 49 15 5.0 9.0 0.00 0.00 0.00 80 1007.3
20260506003019 50 327 5.0 10.0 0.00 0.00 0.00 79 1006.9
20260506001517 50 49 3.0 8.0 0.00 0.00 0.00 78 1006.9
20260506000021 50 52 4.0 12.0 0.00 0.00 0.00 77 1006.5
20260505234533 50 350 4.0 12.0 0.00 0.00 0.00 76 1006.6
20260505233011 50 17 6.0 12.0 0.00 0.00 0.00 75 1006.6
20260505231509 51 47 4.0 12.0 0.00 0.00 0.00 76 1007.1
20260505230009 51 33 3.0 12.0 0.00 0.00 0.00 75 1006.5
20260505224503 51 57 5.0 11.0 0.00 0.00 0.00 76 1006.3
20260505223003 51 27 7.0 14.0 0.00 0.00 0.00 76 1006.2
20260505221602 52 61 5.0 11.0 0.00 0.00 0.00 75 1006.0
20260505221502 52 34 6.0 11.0 0.00 0.00 0.00 76 1005.9
20260505220058 52 63 6.0 14.0 0.00 0.00 0.00 75 1005.8
20260505214555 53 39 5.0 13.0 0.00 0.00 0.00 74 1005.6
20260505213055 53 65 5.0 14.0 0.00 0.00 0.00 74 1005.1
20260505211555 53 36 6.0 19.0 0.00 0.00 0.00 75 1005.1
20260505210050 53 8 7.0 12.0 0.00 0.00 0.00 76 1004.6
20260505204553 53 65 5.0 12.0 0.00 0.00 0.00 76 1004.8
20260505203057 53 93 4.0 12.0 0.00 0.00 0.00 76 1005.9
20260505201548 53 37 6.0 12.0 0.00 0.00 0.00 76 1005.0
20260505200046 53 25 8.0 15.0 0.00 0.00 0.00 77 1004.6
20260505194603 53 49 5.0 15.0 0.00 0.00 0.00 80 1004.5
20260505193041 53 23 7.0 15.0 0.00 0.00 0.00 80 1004.3
20260505191552 53 35 5.0 11.0 0.00 0.00 0.00 80 1004.3
20260505190038 54 34 4.0 10.0 0.00 0.00 0.00 80 1004.1
20260505184536 55 64 5.0 12.0 0.00 0.00 0.00 80 1004.3
20260505183030 55 36 5.0 11.0 0.00 0.00 0.00 79 1004.1
20260505181528 55 318 4.0 14.0 0.00 0.00 0.00 78 1003.9
20260505180030 56 50 8.0 15.0 0.00 0.00 0.00 79 1003.4
20260505174521 56 54 5.0 12.0 0.00 0.00 0.00 80 1003.4
20260505173018 55 22 5.0 11.0 0.00 0.00 0.00 81 1003.1
20260505171517 56 15 5.0 14.0 0.00 0.00 0.00 82 1002.8
20260505170020 55 32 4.0 18.0 0.00 0.00 0.00 83 1002.5
20260505164512 56 25 6.0 10.0 0.00 0.00 0.00 83 1002.4
20260505163015 56 46 4.0 13.0 0.00 0.00 0.00 83 1002.1
20260505161506 57 75 6.0 13.0 0.00 0.00 0.00 82 1001.6
20260505153055 61 37 4.0 8.0 0.00 0.00 0.00 82 1000.0
20260505151549 62 65 7.0 13.0 0.00 0.00 0.00 80 999.5
20260505150105 67 41 4.0 9.0 0.00 0.00 0.00 83 998.8